Total_Precipitation_Accumulation
1.69 1.78 1.84 1.85 1.91 1.91 2.01 2.20 2.45 2.36 2.09 1.89 1.77 1.73 1.80 1.92 2.14 1.98 1.91 1.88 1.68 1.58 1.55 1.57 1.61 1.64 1.80 2.04 2.22 2.30 2.25 2.21 2.21 2.26 2.34 2.45 2.63 2.77
1.48 1.51 1.56 1.63 1.84 1.94 2.01 2.14 2.36 2.47 2.37 1.98 1.75 1.61 1.70 1.74 2.05 1.95 2.00 2.07 1.79 1.56 1.45 1.53 1.59 1.57 1.60 1.66 1.77 1.90 1.99 2.00 1.97 2.00 2.12 2.20 2.30 2.48
1.35 1.37 1.41 1.52 1.68 1.74 1.86 1.99 2.21 2.45 2.54 2.22 1.89 1.69 1.76 1.82 1.88 1.86 1.84 1.79 1.69 1.67 1.49 1.45 1.64 1.80 1.70 1.56 1.52 1.55 1.66 1.77 1.83 1.86 1.96 2.09 2.15 2.22
1.23 1.28 1.20 1.27 1.44 1.56 1.71 1.79 1.93 2.11 2.29 2.22 1.94 1.82 1.76 1.82 1.93 1.94 1.75 1.60 1.52 1.64 1.53 1.45 1.58 1.93 1.99 1.73 1.62 1.52 1.48 1.48 1.55 1.66 1.76 1.87 1.99 2.14
1.10 1.18 1.21 1.31 1.40 1.50 1.62 1.67 1.79 1.86 2.07 2.07 1.87 1.84 1.82 1.82 1.99 1.92 1.69 1.68 1.35 1.36 1.42 1.44 1.52 2.07 2.43 2.18 1.89 1.72 1.54 1.41 1.33 1.41 1.54 1.66 1.71 1.80
1.00 1.04 1.12 1.24 1.37 1.55 1.59 1.67 1.80 1.91 2.01 2.07 1.98 1.95 1.93 1.96 2.09 2.12 1.93 1.74 1.48 1.19 1.31 1.42 1.59 2.03 2.63 2.79 2.37 2.07 1.83 1.63 1.45 1.35 1.38 1.40 1.42 1.43
1.01 1.00 0.99 1.06 1.22 1.36 1.42 1.62 1.88 2.03 2.03 2.09 2.05 2.03 2.00 2.10 2.03 1.98 1.96 1.82 1.57 1.34 1.39 1.35 1.59 2.22 2.84 3.18 2.97 2.36 1.93 1.72 1.58 1.44 1.36 1.30 1.26 1.25
1.05 1.03 0.91 0.89 0.94 1.00 1.09 1.25 1.53 1.79 1.94 2.02 2.00 1.96 1.93 1.98 1.98 1.92 1.96 1.98 1.81 1.45 1.46 1.52 1.82 2.66 3.22 3.46 3.37 2.55 1.88 1.66 1.58 1.50 1.43 1.35 1.26 1.19
1.03 1.04 0.88 0.76 0.90 1.00 1.02 1.04 1.16 1.39 1.68 1.90 1.94 1.80 1.90 1.99 2.08 2.07 1.99 2.00 1.93 1.60 1.58 1.70 1.98 2.64 3.09 3.50 3.45 2.69 2.07 1.73 1.63 1.56 1.47 1.39 1.31 1.22
0.90 0.95 1.01 1.00 0.93 0.98 1.04 1.16 1.34 1.46 1.52 1.54 1.71 1.75 1.78 1.82 1.85 1.89 1.95 1.97 1.85 1.59 1.62 1.92 2.05 2.45 2.82 3.33 3.28 2.62 2.11 1.80 1.65 1.58 1.48 1.36 1.28 1.24
0.74 0.74 0.80 0.85 0.84 0.91 1.08 1.33 1.53 1.72 1.57 1.52 1.58 1.73 1.74 1.60 1.51 1.69 1.96 2.09 1.91 1.62 1.53 1.82 1.99 2.19 2.55 2.90 2.78 2.45 2.09 1.85 1.65 1.50 1.42 1.35 1.27 1.26
0.81 0.78 0.82 0.82 0.83 0.96 1.16 1.49 1.70 1.80 1.63 1.53 1.64 1.79 1.73 1.65 1.62 1.73 1.97 2.01 1.91 1.83 1.56 1.70 1.84 1.98 2.39 2.51 2.31 2.05 1.96 1.95 1.77 1.59 1.45 1.33 1.25 1.18
0.80 0.87 0.91 0.92 0.87 0.97 1.18 1.43 1.66 1.72 1.66 1.63 1.67 1.73 1.78 1.81 1.71 1.71 1.80 1.82 1.85 1.81 1.48 1.65 1.87 1.97 2.21 2.33 2.22 2.03 1.81 1.79 1.78 1.82 1.77 1.51 1.30 1.20
0.86 0.88 0.91 0.93 0.92 1.04 1.16 1.43 1.70 1.85 1.74 1.61 1.54 1.53 1.52 1.55 1.55 1.47 1.46 1.48 1.54 1.62 1.55 1.66 1.97 2.11 2.08 2.01 2.11 2.02 1.92 1.86 1.77 1.82 1.90 1.80 1.58 1.48
0.74 0.89 0.90 0.86 1.00 1.27 1.45 1.60 1.79 1.92 1.81 1.59 1.49 1.38 1.32 1.30 1.29 1.34 1.34 1.32 1.26 1.23 1.17 1.38 1.73 1.94 1.99 1.94 1.97 1.95 2.08 2.23 2.05 1.98 1.90 1.78 1.67 1.54
0.61 0.80 0.96 1.04 1.19 1.48 1.72 1.85 1.92 1.87 1.68 1.50 1.39 1.33 1.25 1.23 1.24 1.23 1.28 1.29 1.32 1.29 1.17 1.22 1.46 1.73 1.86 1.81 1.87 1.93 2.02 2.43 2.41 2.16 2.00 1.93 1.79 1.66
0.55 0.77 0.97 1.10 1.31 1.54 1.68 1.70 1.69 1.64 1.57 1.43 1.32 1.26 1.22 1.21 1.20 1.20 1.24 1.20 1.25 1.25 1.25 1.26 1.36 1.48 1.56 1.66 1.80 1.84 1.98 2.19 2.22 2.05 2.00 2.06 2.00 1.80
0.58 0.84 1.05 1.16 1.34 1.47 1.58 1.55 1.47 1.42 1.39 1.34 1.30 1.23 1.19 1.18 1.20 1.17 1.14 1.14 1.19 1.16 1.13 1.16 1.17 1.23 1.35 1.50 1.66 1.74 1.77 1.93 1.96 1.88 1.76 1.86 2.03 1.93
0.62 0.86 1.07 1.22 1.33 1.37 1.42 1.41 1.36 1.30 1.23 1.20 1.19 1.17 1.14 1.13 1.12 1.08 1.05 1.06 1.08 1.05 1.00 1.02 1.03 1.07 1.23 1.53 1.67 1.69 1.66 1.70 1.76 1.73 1.66 1.68 1.88 1.96
0.73 0.90 1.05 1.12 1.19 1.25 1.27 1.27 1.26 1.20 1.14 1.14 1.20 1.18 1.09 1.03 0.98 0.97 0.98 0.96 0.94 0.91 0.91 0.92 0.93 1.04 1.20 1.42 1.71 1.76 1.58 1.45 1.48 1.55 1.51 1.56 1.71 1.75
0.76 0.86 0.92 0.98 1.04 1.09 1.11 1.09 1.10 1.08 1.04 1.03 1.04 1.05 1.02 0.94 0.88 0.84 0.84 0.79 0.79 0.80 0.87 0.95 0.96 0.90 0.93 1.07 1.33 1.51 1.50 1.49 1.42 1.39 1.36 1.45 1.47 1.35
0.71 0.78 0.79 0.79 0.83 0.88 0.86 0.82 0.85 0.86 0.87 0.89 0.88 0.88 0.91 0.88 0.81 0.76 0.75 0.75 0.78 0.77 0.78 0.80 0.77 0.77 0.87 1.05 1.22 1.33 1.32 1.24 1.23 1.19 1.15 1.14 1.11 1.21
0.62 0.65 0.67 0.68 0.65 0.65 0.68 0.69 0.72 0.78 0.81 0.82 0.81 0.81 0.80 0.76 0.70 0.67 0.68 0.66 0.65 0.65 0.70 0.77 0.77 0.78 0.85 0.95 1.07 1.12 1.07 1.03 1.02 1.03 1.09 1.12 1.04 1.09